User: anonymous   Login
Location: Poughquag
(41.6090°N, 73.6820°W)
Time: 08:32:29
(UTC-04:00)
Language:

DOVE 4 - Orbit

View from above orbital plane
View from above orbital plane
View from above satellite
View from above satellite

Ground track
Ground track

The orbit data is extracted from the following two-line orbital elements,

1 39430U 13066Q   24199.18545531  .00003352  00000-0  55774-3 0  9996
2 39430  97.7294  71.7529 0140196 156.8919 203.8673 14.64348611567432
Epoch (UTC): 17 July 2024 04:27:03
Eccentricity: 0.0140196
inclination: 97.7294°
perigee height: 580 km
apogee height: 778 km
right ascension of ascending node: 71.7529°
argument of perigee: 156.8919°
revolutions per day: 14.64348611
mean anomaly at epoch: 203.8673°
orbit number at epoch: 56743

The dashed part of the orbit path shows where the satellite is in the earth's shadow,  

DLR